Header for Extended Forecast Station List Page

Search by: ID | Name | Date | Parm | Value | Avg | % Avg
Sort by: ID | Name | Date | Parm | Value | Avg | % Avg

Enter search or view all records.

Click on id for station plot
#IDNameDateParmValueAvg% Avg
0HWRI1BIG LOST-AT HOWELL RANCH NEAR CHILLY08-31-2015DISCHARGE (KAF)182668
1MACI1BIG LOST-MACKAY RESERVOIR NEAR MACKAY08-31-2015INFLOW (KAF)2912243
2HALI1BIG WOOD-AT HAILEY08-31-2015DISCHARGE (KAF)294565
3MAGI1BIG WOOD-MAGIC DAM08-31-2015INFLOW (KAF)62823
4BITM8BITTERROOT-NEAR MISSOULA08-31-2015DISCHARGE (KAF)15323366
5BONM8BLACKFOOT-NEAR BONNER08-31-2015DISCHARGE (KAF)9214962
6BIGI1BOISE-AT GLENWOOD BRIDGE08-31-2015DISCHARGE (KAF)567277
7LUCI1BOISE-LUCKY PEAK DAM08-31-2015INFLOW (KAF)84MM
8PARI1BOISE-NEAR PARMA08-31-2015DISCHARGE (KAF)18222481
9HOTI1BRUNEAU-NEAR HOT SPRINGS08-31-2015DISCHARGE (KAF)152364
10BULO3BULLY CREEK-BULLY CREEK DAM08-31-2015INFLOW (KAF)1181
11BUDW1BUMPING-BUMPING LAKE DAM08-31-2015INFLOW (KAF)162757
12CHDW1CHELAN-LAKE CHELAN DAM08-31-2015INFLOW (KAF)202164123
13ABOM8CLARK FORK-ABOVE MISSOULA08-31-2015DISCHARGE (KAF)27136674
14DLGM8CLARK FORK-AT DEER LODGE08-31-2015DISCHARGE (KAF)6059101
15SRGM8CLARK FORK-AT ST REGIS08-31-2015DISCHARGE (KAF)50978365
16BELM8CLARK FORK-BELOW MISSOULA08-31-2015DISCHARGE (KAF)42560770
17CABI1CLARK FORK-CABINET GORGE DAM08-31-2015INFLOW (KAF)2282327570
18NOXM8CLARK FORK-NOXON RAPIDS DAM08-31-2015INFLOW (KAF)2081314866
19DRMM8CLARK FORK-NR DRUMMOND08-31-2015DISCHARGE (KAF)130MM
20CLUW1CLE ELUM-CLE ELUM LAKE08-31-2015INFLOW (KAF)558366
21ORFI1CLEARWATER-AT OROFINO08-31-2015DISCHARGE (KAF)35253166
22SPDI1CLEARWATER-AT SPALDING08-31-2015DISCHARGE (KAF)913126272
23COEI1COEUR D ALENE-COEUR D ALENE LAKE08-31-2015INFLOW (KAF)20037553
24CIBW1COLUMBIA-AT INTL BOUNDARY08-31-2015DISCHARGE (KAF)18161MM
25BONO3COLUMBIA-BONNEVILLE DAM08-31-2015INFLOW (KAF)25895MM
26CHJW1COLUMBIA-CHIEF JOSEPH DAM08-31-2015INFLOW (KAF)183831898697
27GCDW1COLUMBIA-GRAND COULEE DAM08-31-2015INFLOW (KAF)1879817365108
28JDAO3COLUMBIA-JOHN DAY DAM08-31-2015INFLOW (KAF)247852711291
29MCDW1COLUMBIA-MCNARY DAM08-31-2015INFLOW (KAF)241302650591
30PRWW1COLUMBIA-PRIEST RAPIDS DAM08-31-2015INFLOW (KAF)1923518848102
31RRHW1COLUMBIA-ROCKY REACH DAM08-31-2015INFLOW (KAF)190101974396
32TDAO3COLUMBIA-THE DALLES DAM08-31-2015INFLOW (KAF)254502909287
33WANW1COLUMBIA-WANAPUM DAM08-31-2015INFLOW (KAF)1923418584103
34WELW1COLUMBIA-WELLS DAM08-31-2015INFLOW (KAF)186111929396
35DEDI1DEADWOOD-NEAR LOWMAN08-31-2015INFLOW (KAF)151882
36MODO3DESCHUTES-AT MOODY NR BIGGS08-31-2015DISCHARGE (KAF)1119119993
37ARDW1ENTIAT-NEAR ARDENVOIR08-31-2015DISCHARGE (KAF)202390
38CHEI1FALL RIVER-NEAR CHESTER08-31-2015DISCHARGE (KAF)111102109
39CFMM8FLATHEAD-AT COLUMBIA FALLS08-31-2015DISCHARGE (KAF)864117573
40KERM8FLATHEAD-KERR DAM08-31-2015INFLOW (KAF)931142565
41TRYO3GRANDE RONDE-TROY08-31-2015DISCHARGE (KAF)14322564
42REXI1HENRYS FORK-AT REXBURG08-31-2015DISCHARGE (KAF)27941068
43ANTI1HENRYS FORK-AT ST. ANTHONY08-31-2015DISCHARGE (KAF)20332862
44IPDI1HENRYS FORK-ISLAND PARK DAM08-31-2015INFLOW (KAF)10012779
45HODO3HOOD-NEAR TUCKER BRIDGE08-31-2015DISCHARGE (KAF)13614991
46SERO3JOHN DAY-AT SERVICE CK08-31-2015DISCHARGE (KAF)6510065
47KADW1KACHESS-KACHESS DAM08-31-2015INFLOW (KAF)303097
48LAUW1KETTLE-AT LAURIER08-31-2015DISCHARGE (KAF)8312765
49PITW1KLICKITAT-NEAR PITT08-31-2015DISCHARGE (KAF)17020583
50BFEI1KOOTENAI-AT BONNERS FERRY08-31-2015STAGE (FT)MMM
51LEOI1KOOTENAI-AT LEONIA08-31-2015DISCHARGE (KAF)21491811119
52LYDM8KOOTENAI-LIBBY DAM08-31-2015INFLOW (KAF)875117075
53LWRI1LITTLE WOOD-LITTLE WOOD DAM08-31-2015INFLOW (KAF)61538
54BERO3MALHEUR-AGENCY VALLEY DAM08-31-2015INFLOW (KAF)1111105
55VALO3MALHEUR-NEAR VALE08-31-2015DISCHARGE (KAF)82630
56WRMO3MALHEUR-WARM SPRINGS DAM08-31-2015INFLOW (KAF)9997
57MYKO3MCKAY CREEK-NEAR PILOT ROCK08-31-2015DISCHARGE (KAF)6696
58PATW1METHOW-NEAR PATEROS08-31-2015DISCHARGE (KAF)6610364
59WGCM8MF FLATHEAD-NEAR WEST GLACIER08-31-2015DISCHARGE (KAF)7019137
60CLFW1NACHES-NEAR CLIFFDEL08-31-2015DISCHARGE (KAF)628374
61NACW1NACHES-NEAR NACHES08-31-2015DISCHARGE (KAF)768292
62DWRI1NF CLEARWATER-DWORSHAK DAM08-31-2015INFLOW (KAF)19639849
63FCFM8NF FLATHEAD-NEAR COLUMBIA FALLS08-31-2015DISCHARGE (KAF)12522855
64MONO3NF JOHN DAY-AT MONUMENT08-31-2015DISCHARGE (KAF)385273
65CSDI1NF PAYETTE-CASCADE DAM08-31-2015INFLOW (KAF)708384
66TONW1OKANOGAN-NEAR TONASKET08-31-2015DISCHARGE (KAF)16327759
67OWYO3OWYHEE-BELOW OWYHEE DAM08-31-2015INFLOW (KAF)186130
68EMMI1PAYETTE-NEAR EMMETT08-31-2015DISCHARGE (KAF)21336459
69ALFW1PEND OREILLE-ALBENI FALLS DAM08-31-2015INFLOW (KAF)2436372065
70HOPI1PEND OREILLE-PEND OREILLE LAKE NR HOPE08-31-2015LAKE ELEVATION (FT)MMM
71PIHI1PORTNEUF-AT POCATELLO08-31-2015DISCHARGE (KAF)264655
72PRTI1PRIEST-NEAR PRIEST RIVER08-31-2015DISCHARGE (KAF)17620188
73RCCM8ROCK CREEK-NEAR CLINTON08-31-2015DISCHARGE (KAF)385668
74WHBI1SALMON-AT WHITEBIRD08-31-2015DISCHARGE (KAF)776111470
75ARAI1SF BOISE-ANDERSON RANCH DAM08-31-2015INFLOW (KAF)666996
76HHWM8SF FLATHEAD-HUNGRY HORSE DAM08-31-2015INFLOW (KAF)12923655
77PLDI1SF SNAKE-PALISADES DAM08-31-2015INFLOW (KAF)69385381
78SIFI1SNAKE-AB EAGLE ROCK NR IDAHO FALLS08-31-2015DISCHARGE (KAF)77792484
79AFRI1SNAKE-AMERICAN FALLS RESERVOIR08-31-2015INFLOW (KAF)1164134487
80SNAI1SNAKE-AT BLACKFOOT08-31-2015DISCHARGE (KAF)51563182
81MILI1SNAKE-AT MILNER08-31-2015DISCHARGE (KAF)8630128
82WEII1SNAKE-AT WEISER08-31-2015DISCHARGE (KAF)2518337775
83SWAI1SNAKE-BELOW SWAN FALLS08-31-2015DISCHARGE (KAF)1785234276
84BRNI1SNAKE-BROWNLEE DAM08-31-2015INFLOW (KAF)2656344677
85IHDW1SNAKE-ICE HARBOR DAM08-31-2015INFLOW (KAF)4302643067
86JLKW4SNAKE-JACKSON LAKE AT DAM08-31-2015INFLOW (KAF)8911677
87LGSW1SNAKE-LITTLE GOOSE DAM08-31-2015INFLOW (KAF)4296650066
88LGDW1SNAKE-LOWER GRANITE DAM08-31-2015INFLOW (KAF)4327645667
89LMNW1SNAKE-LOWER MONUMENTAL DAM08-31-2015INFLOW (KAF)4310650366
90ALPW4SNAKE-NEAR ALPINE08-31-2015DISCHARGE (KAF)43057175
91ANAW1SNAKE-NEAR ANATONE08-31-2015DISCHARGE (KAF)3414505068
92BFTI1SNAKE-NEAR BLACKFOOT08-31-2015DISCHARGE (KAF)53266980
93HEII1SNAKE-NEAR HEISE08-31-2015DISCHARGE (KAF)90795695
94JKSW4SNAKE-NEAR JACKSON08-31-2015DISCHARGE (KAF)38446982
95SHYI1SNAKE-NEAR SHELLEY08-31-2015DISCHARGE (KAF)73181490
96LLKW1SPOKANE-AT LONGLAKE08-31-2015INFLOW (KAF)52479966
97SPOW1SPOKANE-AT SPOKANE08-31-2015DISCHARGE (KAF)373MM
98SJMI1ST JOE-AT ST MARIES08-31-2015STAGE (FT)MMM
99SATI1ST MARIES-NEAR SANTA08-31-2015DISCHARGE (KAF)122159
100STRM8ST. REGIS-NEAR ST. REGIS08-31-2015DISCHARGE (KAF)163249
101TNAW1TEANAWAY-BELOW FORKS08-31-2015DISCHARGE (KAF)142070
102TEAI1TETON-NEAR ST. ANTHONY08-31-2015DISCHARGE (KAF)10513081
103RILW1TIETON-RIMROCK LAKE NEAR RIMROCK08-31-2015INFLOW (KAF)476177
104PDTO3UMATILLA-AT PENDLETON08-31-2015DISCHARGE (KAF)273576
105GIBO3UMATILLA-NEAR GIBBON08-31-2015DISCHARGE (KAF)162081
106UMAO3UMATILLA-NEAR UMATILLA08-31-2015DISCHARGE (KAF)3734109
107TCHW1WALLA WALLA-NEAR TOUCHET08-31-2015DISCHARGE (KAF)374680
108WSRI1WEISER-NEAR WEISER08-31-2015DISCHARGE (KAF)385173
109PESW1WENATCHEE-AT PESHASTIN08-31-2015DISCHARGE (KAF)22025487
110UNDW1WHITE SALMON-NEAR UNDERWOOD08-31-2015DISCHARGE (KAF)14417682
111RIDI1WILLOW CREEK-RIRIE DAM08-31-2015INFLOW (KAF)6789
112EASW1YAKIMA-AT EASTON08-31-2015DISCHARGE (KAF)8457148
113KIOW1YAKIMA-AT KIONA08-31-2015DISCHARGE (KAF)595557107
114UMTW1YAKIMA-AT UMTANUM08-31-2015DISCHARGE (KAF)23932274
115KEDW1YAKIMA-KEECHELUS LAKE08-31-2015INFLOW (KAF)4440110
116PARW1YAKIMA-NEAR PARKER08-31-2015DISCHARGE (KAF)27127997